Location: Maignaut
(43.8886°N, 0.4051°E)
Time: 19:12:39
(UTC+00:00)

Cosmos 1726 Rocket - Pass Details

Date: 17 January 2021
Orbit: 604 x 628 km, 82.5° (Epoch: 28 February)

Event Time Altitude Azimuth Distance (km) Brightness Sun altitude
Rises 18:26:13 0° 349° (N) 2,878 7.0 -17.2°
Reaches altitude 10° 18:28:26 10° 348° (NNW) 1,972 6.1 -17.6°
Maximum altitude 18:32:47 74° 264° (W) 640 3.7 -18.3°
Drops below altitude 10° 18:37:08 10° 179° (S) 1,971 6.2 -19.1°
Sets 18:39:22 0° 178° (S) 2,875 7.1 -19.5°
